ARIANE 2 DEB, 27030

Orbit data source: Space-Track

ARIANE 2 DEB, 27030 is space debris in HEO originally from a launch on Fri, 27 Jan 1989 UTC launched from the French Guiana (FRGUI). Debris objects in space refer to the collection of defunct objects orbiting the Earth. Examples of debris include non-operational satellites, rocket bodies, and fragments generated from explosions, collisions, or faulty payload assembly.

Loading next visibility...
Identifier
27030, 1989-006K
Orbit
HEO
Country
Flag of FRFR
Related business
Manufacturer
EADS/LV
Mission
Spacecraft
Bus & Motor
Unknown
Mass
Unknown
Launch date (UTC)
1989-01-27 (37 years ago)
Launch vehicle
Unknown
Launch site
French Guiana (FRGUI)
Object type
Payload
Rocket body
Debris
Shape & HBR
Unknown shape, 0.4 m
Radar Cross Section
Medium (>0.1 m² and <1 m²)

Expand to show TLE details & history
Last TLE update: 2 days ago

TLE from 2 days ago
0 ARIANE 2 DEB
1 27030U 89006K   26060.75911184 -.00000064  00000-0  17545-3 0  9991
2 27030   8.6838 359.9793 7097247 226.9735  46.4936  2.37447109207426
Epoch: 2026-03-01T18:13Z
TLE epoch observation values (Epoch: 2026-03-01T18:13:07.262Z)
Latitude
0.00015°
Longitude
-72.83088°
Altitude
16,533.362 km
Speed
4.242 km/s
True Right ascension
00h 00m 02s
True Declination
0° 00' 01"
Sunlit
Object was in daylight at epoch
Visualization orbit readout
Latitude
Unknown
Longitude
Unknown
Altitude
Unknown
Speed
Unknown
Apparent Right ascension
Unknown
Apparent Declination
Unknown
Sunlit
N/A
Visualization observer readout
Local Sidereal Time
10:51:30
Azimuth
Unknown
Elevation
Unknown
Doppler factor
Unknown
Orbital elements
Apogee altitude
34,207.981 km
Perigee altitude
512.532 km
Semi-major axis
23,738.394 km
Eccentricity
0.70972
Inclination
8.6838°
RAAN
359.9793°
Arg. of periapsis
226.9735°
True anomaly
133.1363°
Mean anomaly
46.4936°
Eccentric anomaly
87.10597°
Mean motion
0.59343 °/min
Orbital period
606.65 mins
BSTAR
0.00017545
Loading maneuver chart data...
Computing Atmospheric mass density...
Loading historical data...
Loading historical data...
Loading historical data...
Loading historical data...
Loading historical data...
Loading historical data...
Loading historical data...

Documentation

Showing up to 5 results
|